Wilmington, NC

4:24 AM EST on December 09, 2016 (GMT -0500)
Wilmington International

Weather History for KILM - April, 2014

Change the Weather History Date:

Tuesday, April 1, 2014

  Actual Average Record
Temperature  
Mean Temperature 60 °F 59 °F  
Max Temperature 80 °F 71 °F 87 °F (1974)
Min Temperature 40 °F 48 °F 29 °F (1923)
Degree Days  
Heating Degree Days 5 7  
Month to date heating degree days 5 7  
Since 1 July heating degree days 2352 2259  
Cooling Degree Days 0 1  
Month to date cooling degree days 0 1  
Year to date cooling degree days 7 22  
Growing Degree Days 10 (Base 50)    
Moisture  
Dew Point 39 °F    
Average Humidity 53    
Maximum Humidity 89    
Minimum Humidity 16    
Precipitation  
Precipitation 0.00 in 0.11 in 1.98 in (1973)
Month to date precipitation 0.00 0.11  
Year to date precipitation 11.85 11.70  
Snow  
Snow 0.00 in 0.00 in - ()
Month to date snowfall 0.0 0.0  
Since 1 July snowfall 1.0 1.7  
Snow Depth 0.00 in    
Sea Level Pressure  
Sea Level Pressure 30.11 in    
Wind  
Wind Speed 6 mph (SW)    
Max Wind Speed 18 mph    
Max Gust Speed 26 mph    
Visibility 10 miles    
Events      
T = Trace of Precipitation, MM = Missing Value Source: NWS Daily Summary

Daily Weather History Graph

Daily Weather History Graph

Search for Another Location

Airport or City:

Trip Planner

Search our weather history database for the weather conditions in past years. The results will help you decide how hot, cold, wet, or windy it might be!

Date:

Astronomy

Apr. 01, 2014 Rise Set
Actual Time 6:58 AM EDT 7:32 PM EDT
Civil Twilight 6:33 AM EDT 7:57 PM EDT
Nautical Twilight 6:03 AM EDT 8:27 PM EDT
Astronomical Twilight 5:33 AM EDT 8:57 PM EDT
Moon 8:05 AM EDT (4/1) 9:46 PM EDT (4/1)
Length of Visible Light 13h 24m
Length of Day
12h 33m
Waxing Crescent, 4% of the Moon is Illuminated
Apr 1
Waxing Crescent
Apr 7
First Quarter
Apr 15
Full
Apr 22
Last Quarter
Apr 29
New

Hourly Weather History & Observations

Time (EDT) Temp. Dew Point Humidity Pressure Visibility Wind Dir Wind Speed Gust Speed Precip Events Conditions
12:53 AM 48.9 °F 42.1 °F 77% 30.12 in 10.0 mi Calm Calm - N/A   Clear
1:53 AM 48.0 °F 39.0 °F 71% 30.12 in 10.0 mi Calm Calm - N/A   Clear
2:53 AM 46.0 °F 41.0 °F 83% 30.11 in 10.0 mi Calm Calm - N/A   Clear
3:53 AM 45.0 °F 39.0 °F 80% 30.10 in 10.0 mi Calm Calm - N/A   Clear
4:53 AM 44.1 °F 39.9 °F 85% 30.10 in 10.0 mi Calm Calm - N/A   Clear
5:53 AM 43.0 °F 39.9 °F 89% 30.11 in 10.0 mi Calm Calm - N/A   Clear
6:53 AM 41.0 °F 37.9 °F 89% 30.12 in 10.0 mi Calm Calm - N/A   Clear
7:53 AM 46.0 °F 42.1 °F 86% 30.14 in 10.0 mi Calm Calm - N/A   Clear
8:53 AM 55.0 °F 46.9 °F 74% 30.17 in 10.0 mi Calm Calm - N/A   Clear
9:53 AM 64.0 °F 41.0 °F 43% 30.17 in 10.0 mi West 3.5 mph - N/A   Clear
10:53 AM 71.1 °F 37.9 °F 30% 30.17 in 10.0 mi South 8.1 mph - N/A   Clear
11:53 AM 75.0 °F 33.1 °F 22% 30.15 in 10.0 mi SW 9.2 mph - N/A   Clear
12:53 PM 78.1 °F 30.0 °F 17% 30.13 in 10.0 mi SSW 10.4 mph - N/A   Clear
1:53 PM 78.1 °F 28.0 °F 16% 30.11 in 10.0 mi SW 13.8 mph 18.4 mph N/A   Clear
2:53 PM 77.0 °F 28.9 °F 17% 30.09 in 10.0 mi SSW 10.4 mph - N/A   Clear
3:53 PM 77.0 °F 28.9 °F 17% 30.06 in 10.0 mi SSW 13.8 mph - N/A   Clear
4:53 PM 77.0 °F 37.0 °F 24% 30.05 in 10.0 mi SSW 12.7 mph - N/A   Clear
5:53 PM 75.9 °F 37.9 °F 25% 30.05 in 10.0 mi SW 10.4 mph - N/A   Clear
6:53 PM 72.0 °F 39.9 °F 31% 30.06 in 10.0 mi SSW 13.8 mph - N/A   Clear
7:53 PM 66.9 °F 45.0 °F 45% 30.08 in 10.0 mi SSW 6.9 mph - N/A   Clear
8:53 PM 64.9 °F 45.0 °F 48% 30.09 in 10.0 mi SSW 10.4 mph - N/A   Clear
9:53 PM 62.1 °F 46.0 °F 56% 30.09 in 10.0 mi SW 6.9 mph - N/A   Clear
10:53 PM 62.1 °F 46.0 °F 56% 30.09 in 10.0 mi SSW 6.9 mph - N/A   Clear
11:53 PM 61.0 °F 45.0 °F 56% 30.10 in 10.0 mi SSW 5.8 mph - N/A   Clear